Weather History for Broome Airport, Western Australia

Change the Weather History Date:

Thursday, April 10, 2014

  Actual Average Record
Temperature  
Mean Temperature 82 °F -  
Max Temperature 90 °F 92 °F - ()
Min Temperature 73 °F 70 °F - ()
Cooling Degree Days 16    
Growing Degree Days 32 (Base 50)    
Moisture  
Dew Point 73 °F    
Average Humidity 72    
Maximum Humidity 100    
Minimum Humidity 46    
Precipitation  
Precipitation 0.00 in 0.03 in - ()
Sea Level Pressure  
Sea Level Pressure 29.82 in    
Wind  
Wind Speed 4 mph ()    
Max Wind Speed 12 mph    
Max Gust Speed -    
Visibility 6.2 miles    
Events      
T = Trace of Precipitation, MM = Missing Value Source: Averaged Metar Reports

Daily Weather History Graph

Daily Weather History Graph

Search for Another Location

Airport:

Trip Planner

Search our weather history database for the weather conditions in past years. The results will help you decide how hot, cold, wet, or windy it might be!

Date:

Astronomy

Apr. 10, 2014 Rise Set
Actual Time 5:59 AM AWST 5:45 PM AWST
Civil Twilight 5:37 AM AWST 6:07 PM AWST
Nautical Twilight 5:11 AM AWST 6:32 PM AWST
Astronomical Twilight 4:46 AM AWST 6:58 PM AWST
Moon 2:21 PM AWST (4/10) 1:30 AM AWST (4/10)
Length of Visible Light 12h 30m
Length of Day
11h 46m
Waxing Gibbous, 75% of the Moon is Illuminated
Apr 10
Waxing Gibbous
Apr 15
Full
Apr 22
Last Quarter
Apr 29
New
May 7
First Quarter

Hourly Weather History & Observations

Time (AWST) Temp. Heat Index Dew Point Humidity Pressure Visibility Wind Dir Wind Speed Gust Speed Precip Events Conditions
12:00 AM 75 °F - 72 °F 89% 29.82 in - Calm Calm - -  
12:00 AM 75.2 °F - 73.4 °F 94% 29.80 in 6.2 mi Calm Calm - N/A   Unknown
12:30 AM 75.2 °F - 71.6 °F 89% 29.80 in 6.2 mi NE 4.6 mph - N/A   Unknown
1:00 AM 75.2 °F - 71.6 °F 89% 29.80 in 6.2 mi NNE 2.3 mph - N/A   Unknown
1:30 AM 75.2 °F - 71.6 °F 89% 29.80 in 6.2 mi Calm Calm - N/A   Unknown
2:00 AM 74 °F - 72 °F 93% 29.80 in - Calm Calm - -  
2:00 AM 75.2 °F - 71.6 °F 89% 29.80 in 6.2 mi Calm Calm - N/A   Unknown
2:30 AM 73.4 °F - 71.6 °F 94% 29.80 in 6.2 mi Calm Calm - N/A   Unknown
3:00 AM 74 °F - 72 °F 93% 29.81 in - Calm Calm - -  
3:00 AM 75.2 °F - 71.6 °F 89% 29.80 in 6.2 mi Calm Calm - N/A   Unknown
3:30 AM 73.4 °F - 71.6 °F 94% 29.80 in 6.2 mi Calm Calm - N/A   Unknown
4:00 AM 73.4 °F - 71.6 °F 94% 29.80 in 6.2 mi Calm Calm - N/A   Unknown
4:30 AM 73.4 °F - 71.6 °F 94% 29.80 in 6.2 mi Calm Calm - N/A   Unknown
5:00 AM 74 °F - 72 °F 94% 29.83 in - Calm Calm - -  
5:00 AM 73.4 °F - 73.4 °F 100% 29.83 in 6.2 mi Calm Calm - N/A   Unknown
5:30 AM 73.4 °F - 71.6 °F 94% 29.83 in 6.2 mi Calm Calm - N/A   Unknown
6:00 AM 74 °F - 72 °F 91% 29.84 in 25 mi Calm Calm - -   Partly Cloudy
6:00 AM 73.4 °F - 71.6 °F 94% 29.83 in 6.2 mi Calm Calm - N/A   Partly Cloudy
6:30 AM 75.2 °F - 73.4 °F 94% 29.83 in 6.2 mi Calm Calm - N/A   Partly Cloudy
7:00 AM 78.8 °F - 75.2 °F 89% 29.86 in 6.2 mi Calm Calm - N/A   Partly Cloudy
7:30 AM 84.2 °F 90.9 °F 73.4 °F 70% 29.86 in 6.2 mi Calm Calm - N/A   Partly Cloudy
8:00 AM 85 °F - 72 °F 58% 29.87 in - SW 6.9 mph - -  
8:00 AM 84.2 °F 90.9 °F 73.4 °F 70% 29.86 in 6.2 mi SW 6.9 mph - N/A   Partly Cloudy
8:30 AM 86.0 °F 91.8 °F 71.6 °F 62% 29.86 in 6.2 mi WSW 8.1 mph - N/A   Scattered Clouds
9:00 AM 86 °F - 72 °F 56% 29.88 in 25 mi WSW 8.1 mph - -   Partly Cloudy
9:00 AM 86.0 °F 93.4 °F 73.4 °F 66% 29.86 in 6.2 mi WSW 8.1 mph - N/A   Scattered Clouds
9:30 AM 87.8 °F 93.8 °F 71.6 °F 58% 29.86 in 6.2 mi WSW 5.8 mph - N/A   Scattered Clouds
10:00 AM 87.8 °F 95.6 °F 73.4 °F 62% 29.86 in 6.2 mi WSW 8.1 mph - N/A   Scattered Clouds
10:30 AM 87.8 °F 93.8 °F 71.6 °F 58% 29.86 in 6.2 mi WSW 8.1 mph - N/A   Scattered Clouds
11:00 AM 89 °F - 73 °F 50% 29.85 in - WSW 9.2 mph - -  
11:00 AM 89.6 °F 98.2 °F 73.4 °F 59% 29.83 in 6.2 mi WSW 9.2 mph - N/A   Partly Cloudy
11:30 AM 89.6 °F 96.2 °F 71.6 °F 55% 29.83 in 6.2 mi West 9.2 mph - N/A   Partly Cloudy
12:00 PM 90 °F - 72 °F 46% 29.83 in 25 mi West 10.4 mph - -   Scattered Clouds
12:00 PM 89.6 °F 96.2 °F 71.6 °F 55% 29.83 in 6.2 mi West 10.4 mph - N/A   Partly Cloudy
12:30 PM 89.6 °F 96.2 °F 71.6 °F 55% 29.80 in 6.2 mi West 10.4 mph - N/A   Partly Cloudy
1:00 PM 89.6 °F 96.2 °F 71.6 °F 55% 29.80 in 6.2 mi West 11.5 mph - N/A   Partly Cloudy
1:30 PM 89.6 °F 96.2 °F 71.6 °F 55% 29.80 in 6.2 mi West 11.5 mph - N/A   Partly Cloudy
2:00 PM 89 °F - 71 °F 46% 29.79 in - WSW 10.4 mph - -  
2:00 PM 87.8 °F 93.8 °F 71.6 °F 58% 29.77 in 6.2 mi WSW 10.4 mph - N/A   Partly Cloudy
2:30 PM 89.6 °F 96.2 °F 71.6 °F 55% 29.77 in 6.2 mi West 11.5 mph - N/A   Partly Cloudy
3:00 PM 89 °F - 71 °F 47% 29.78 in 25 mi West 10.4 mph - -   Scattered Clouds
3:00 PM 89.6 °F 96.2 °F 71.6 °F 55% 29.77 in 6.2 mi West 10.4 mph - N/A   Partly Cloudy
3:30 PM 89.6 °F 94.7 °F 69.8 °F 52% 29.77 in 6.2 mi WSW 11.5 mph - N/A   Partly Cloudy
4:00 PM 87.8 °F 93.8 °F 71.6 °F 58% 29.77 in 6.2 mi WSW 10.4 mph - N/A   Partly Cloudy
4:30 PM 87.8 °F 93.8 °F 71.6 °F 58% 29.77 in 6.2 mi WSW 10.4 mph - N/A   Partly Cloudy
5:00 PM 87 °F - 73 °F 54% 29.78 in - WSW 8.1 mph - -  
5:00 PM 87.8 °F 95.6 °F 73.4 °F 62% 29.77 in 6.2 mi WSW 8.1 mph - N/A   Partly Cloudy
5:30 PM 86.0 °F 93.4 °F 73.4 °F 66% 29.77 in - West 8.1 mph - N/A   Clear
6:00 PM 84 °F - 74 °F 64% 29.80 in 25 mi WNW 5.8 mph - -   Partly Cloudy
6:00 PM 84.2 °F 90.9 °F 73.4 °F 70% 29.80 in - WNW 5.8 mph - N/A   Clear
6:30 PM 84.2 °F 90.9 °F 73.4 °F 70% 29.80 in 6.2 mi West 4.6 mph - N/A   Unknown
7:00 PM 84.2 °F 92.3 °F 75.2 °F 74% 29.80 in - West 3.5 mph - N/A   Clear
7:30 PM 84.2 °F 90.9 °F 73.4 °F 70% 29.80 in - WSW 4.6 mph - N/A   Clear
8:00 PM 84 °F - 74 °F 64% 29.83 in - SW 5.8 mph - -  
8:00 PM 84.2 °F 90.9 °F 73.4 °F 70% 29.83 in - SW 5.8 mph - N/A   Clear
8:30 PM 84.2 °F 90.9 °F 73.4 °F 70% 29.83 in - WSW 5.8 mph - N/A   Clear
9:00 PM 84 °F - 74 °F 65% 29.85 in 25 mi SW 4.6 mph - -   Partly Cloudy
9:00 PM 84.2 °F 90.9 °F 73.4 °F 70% 29.83 in - SW 4.6 mph - N/A   Clear
9:30 PM 82.4 °F 88.2 °F 73.4 °F 74% 29.83 in 6.2 mi WSW 4.6 mph - N/A   Unknown
10:00 PM 82.4 °F 89.5 °F 75.2 °F 79% 29.83 in 6.2 mi West 4.6 mph - N/A   Unknown
10:30 PM 82.4 °F 88.2 °F 73.4 °F 74% 29.83 in 6.2 mi West 4.6 mph - N/A   Unknown
11:00 PM 82 °F - 75 °F 75% 29.84 in - WNW 3.5 mph - -  
11:00 PM 82.4 °F 89.5 °F 75.2 °F 79% 29.83 in 6.2 mi WNW 3.5 mph - N/A   Unknown
11:30 PM 78.8 °F - 75.2 °F 89% 29.83 in 6.2 mi West 1.2 mph - N/A   Mostly Cloudy